[[{"header":{"parameterUnit":"m.s-1","parameterCategory":1,"la1":30.2991,"la2":30.254,"lo1":-89.0895,"lo2":-89.0444,"dy":0.0017,"dx":0.0017,"nx":28,"ny":28,"refTime":"2024-04-01T03:00:00:Z","depth":0,"parameterNumber":2,"parameterNumberName":"U-component_of_WINDS"},"data":[0,0,0,0,0,0,0,0,0,0,0,0,0,0,0,0,0,0,0,0,0,0,0,0,0,0,0,0,0,0,0,0,0,0,0,0,0,0,0,0,0,0,0,0,0,0,0,0,0,0,0,0,0,0,0,0,0,0,-0.105,-0.105,0,-0.111,-0.1111,-0.1111,-0.1122,-0.1122,-0.1121,-0.1121,-0.1181,-0.1183,-0.1185,0,0,0,0,0,0,0,0,0,0,0,0,0,-0.0943,-0.0944,-0.105,-0.105,-0.1051,-0.111,-0.1111,-0.1112,-0.1122,-0.1122,-0.1121,-0.112,-0.118,-0.1183,-0.1185,0,0,0,0,0,0,0,0,0,0,0,0,0,-0.0995,-0.0945,-0.105,-0.1064,-0.1065,-0.111,-0.1111,-0.1112,-0.1122,-0.1122,-0.1121,-0.112,-0.1179,-0.1182,-0.1185,-0.122,0,0,-0.1195,-0.1196,0,0,0,0,0,0,0,0,-0.0992,-0.0998,-0.1061,-0.1063,-0.1065,-0.1108,-0.1095,-0.1148,-0.1122,-0.1101,-0.1121,-0.112,-0.1157,-0.1162,-0.1175,-0.1222,-0.1225,-0.1195,-0.1197,-0.1198,-0.1199,0,0,0,0,0,0,0,-0.0988,-0.0996,-0.1074,-0.1062,-0.1064,-0.1066,-0.1073,-0.1105,-0.1132,-0.1103,-0.1103,-0.111,-0.1158,-0.1172,-0.1176,-0.1226,-0.1195,-0.1198,-0.12,-0.1201,-0.1304,-0.1305,0,0,0,0,0,0,-0.0982,-0.0993,-0.1072,-0.1075,-0.1026,-0.1069,-0.1076,-0.1095,-0.1132,-0.1137,-0.1111,-0.1111,-0.1167,-0.1173,-0.1179,-0.122,-0.1198,-0.1201,-0.1203,-0.1303,-0.1304,-0.1305,0,0,0,0,0,0,-0.098,-0.0989,-0.1069,-0.1034,-0.1045,-0.1072,-0.1092,-0.1096,-0.111,-0.1138,-0.1143,-0.112,-0.1167,-0.1174,-0.1209,-0.1223,-0.1203,-0.1206,-0.1302,-0.1303,-0.1305,-0.1305,0,0,0,0,0,0,-0.0977,-0.0988,-0.1002,-0.1035,-0.1047,-0.1099,-0.1093,-0.1098,-0.1116,-0.1116,-0.1148,-0.1153,-0.1167,-0.1205,-0.1212,-0.1227,-0.1208,-0.1301,-0.1303,-0.1304,-0.1304,-0.1306,-0.1308,0,0,0,0,0,-0.0973,-0.0999,-0.1002,-0.1012,-0.1064,-0.11,-0.1107,-0.1122,-0.1117,-0.113,-0.1148,-0.1152,-0.122,-0.1208,-0.1217,-0.1232,-0.13,-0.1302,-0.1304,-0.1303,-0.1306,-0.1308,0,0,0,0,0,0,-0.0966,-0.1004,-0.1008,-0.1045,-0.107,-0.1102,-0.1119,-0.1125,-0.1151,-0.115,-0.1167,-0.1175,-0.1209,-0.1224,-0.121,-0.1267,-0.126,-0.1263,-0.1256,-0.1259,-0.1261,-0.1256,-0.1211,0,0,0,0,0,-0.097,-0.0996,-0.1027,-0.1057,-0.1069,-0.1092,-0.1109,-0.1118,-0.1144,-0.1154,-0.1175,-0.1199,-0.1226,-0.1243,-0.127,-0.1306,-0.1313,-0.1321,-0.1323,-0.1325,-0.1328,-0.1348,-0.1351,-0.1312,-0.1311,-0.1311,0,0,-0.0976,-0.1,-0.1015,-0.1057,-0.1077,-0.1103,-0.1101,-0.1129,-0.1149,-0.1158,-0.1193,-0.1209,-0.1237,-0.1273,-0.129,-0.1287,-0.134,-0.1327,-0.1328,-0.133,-0.135,-0.1354,-0.1357,-0.1313,-0.1313,-0.1312,0,0,-0.1001,-0.1022,-0.105,-0.107,-0.11,-0.1115,-0.1122,-0.1153,-0.1164,-0.1199,-0.1207,-0.123,-0.1276,-0.1296,-0.1312,-0.1345,-0.1349,-0.1353,-0.1364,-0.1383,-0.1386,-0.1389,-0.14,-0.1404,-0.1356,-0.1356,-0.1356,0,-0.1005,-0.1046,-0.1063,-0.1091,-0.1109,-0.1119,-0.1147,-0.1165,-0.1202,-0.1214,-0.121,-0.1268,-0.1288,-0.1328,-0.1337,-0.1349,-0.1357,-0.1349,-0.1384,-0.1387,-0.139,-0.1401,-0.1405,-0.1356,-0.1356,-0.1356,-0.1356,0,-0.1049,-0.1077,-0.1096,-0.1132,-0.1152,-0.1179,-0.12,-0.1218,-0.1226,-0.1242,-0.1277,-0.1301,-0.1332,-0.1343,-0.1351,-0.1384,-0.1381,-0.1381,-0.1374,-0.1394,-0.1404,-0.1409,-0.1357,-0.1357,-0.1356,-0.1356,0,0,-0.1072,-0.1117,-0.1123,-0.114,-0.1174,-0.1196,-0.1224,-0.1255,-0.1269,-0.1295,-0.1318,-0.1357,-0.1357,-0.1375,-0.1386,-0.1403,-0.1426,-0.14,-0.1401,-0.1403,-0.1464,-0.1463,-0.1468,-0.1429,-0.143,-0.1431,-0.1461,0,-0.1101,-0.1151,-0.1167,-0.1209,-0.1235,-0.1245,-0.127,-0.1293,-0.1308,-0.1332,-0.1348,-0.1375,-0.1373,-0.1384,-0.1402,-0.142,-0.1438,-0.1418,-0.1451,-0.1452,-0.1443,-0.1473,-0.1473,-0.1501,-0.1465,-0.1466,-0.1467,0,-0.1141,-0.1167,-0.1212,-0.1243,-0.1254,-0.1276,-0.1305,-0.1328,-0.1354,-0.1364,-0.1385,-0.1394,-0.1423,-0.1415,-0.1454,-0.144,-0.1455,-0.1465,-0.1467,-0.147,-0.146,-0.1477,-0.151,-0.1513,-0.1473,-0.1473,-0.1472,0,-0.1152,-0.1198,-0.1231,-0.1245,-0.1282,-0.1297,-0.1312,-0.1338,-0.1356,-0.1382,-0.1393,-0.1422,-0.1437,-0.1459,-0.1475,-0.1468,-0.1514,-0.1507,-0.1522,-0.1521,-0.153,-0.1529,-0.1565,-0.1541,-0.1541,-0.1541,-0.1541,0,-0.1182,-0.1209,-0.1236,-0.1256,-0.1287,-0.1305,-0.1334,-0.135,-0.1373,-0.1396,-0.1407,-0.1428,-0.1449,-0.1473,-0.1486,-0.1517,-0.1524,-0.1532,-0.1535,-0.1531,-0.1529,-0.154,-0.1538,-0.1542,-0.1542,-0.1541,-0.1541,0,-0.1199,-0.1219,-0.1255,-0.1287,-0.1296,-0.1316,-0.1344,-0.1363,-0.1379,-0.1408,-0.1416,-0.144,-0.1469,-0.1488,-0.1524,-0.1533,-0.1566,-0.1569,-0.1557,-0.1558,-0.1572,-0.157,-0.1615,-0.1622,-0.1594,-0.1594,-0.1594,0,-0.1216,-0.1237,-0.1272,-0.1288,-0.1304,-0.133,-0.1348,-0.1367,-0.1385,-0.1417,-0.1433,-0.1462,-0.1487,-0.1532,-0.1552,-0.158,-0.1583,-0.1597,-0.1588,-0.1582,-0.1583,-0.1581,-0.1583,-0.1599,-0.1599,-0.1599,-0.1599,0,-0.1245,-0.1254,-0.128,-0.1309,-0.133,-0.1354,-0.1378,-0.139,-0.1413,-0.1433,-0.1463,-0.1482,-0.1519,-0.1548,-0.1578,-0.1594,-0.16,-0.1602,-0.1607,-0.1602,-0.1594,-0.1598,-0.1561,-0.1601,-0.1601,-0.1601,-0.16,-0.16,-0.1262,-0.1281,-0.1308,-0.1337,-0.1357,-0.1379,-0.1398,-0.1417,-0.1442,-0.1474,-0.1484,-0.1514,-0.154,-0.1581,-0.1597,-0.1621,-0.162,-0.1627,-0.1628,-0.163,-0.1629,-0.1591,-0.1627,-0.1627,-0.1627,-0.1627,-0.1627,0,-0.1291,-0.1309,-0.1335,-0.1368,-0.139,-0.1395,-0.1422,-0.1439,-0.1467,-0.149,-0.1514,-0.1548,-0.1576,-0.1599,-0.1628,-0.1643,-0.1646,-0.165,-0.1648,-0.1652,-0.163,-0.1622,-0.1646,-0.1646,-0.1646,-0.1646,-0.1646,-0.1646,-0.1308,-0.134,-0.1352,-0.1394,-0.1412,-0.1442,-0.1457,-0.1477,-0.1496,-0.1534,-0.1557,-0.1572,-0.1596,-0.1626,-0.1652,-0.1658,-0.1668,-0.1671,-0.1677,-0.1656,-0.1653,-0.1651,-0.1644,-0.1673,-0.1673,-0.1697,-0.1697,-0.1698]},{"header":{"parameterUnit":"m.s-1","parameterCategory":1,"la1":30.2991,"la2":30.254,"lo1":-89.0895,"lo2":-89.0444,"dy":0.0017,"dx":0.0017,"nx":28,"ny":28,"refTime":"2024-04-01T03:00:00:Z","depth":0,"parameterNumber":3,"parameterNumberName":"V-component_of_WINDS"},"data":[0,0,0,0,0,0,0,0,0,0,0,0,0,0,0,0,0,0,0,0,0,0,0,0,0,0,0,0,0,0,0,0,0,0,0,0,0,0,0,0,0,0,0,0,0,0,0,0,0,0,0,0,0,0,0,0,0,0,2.8926,2.8926,0,2.8931,2.8931,2.8931,2.8951,2.8952,2.8952,2.8953,2.8957,2.8956,2.8956,0,0,0,0,0,0,0,0,0,0,0,0,0,2.8935,2.8935,2.8926,2.8926,2.8926,2.8931,2.8931,2.8931,2.8951,2.8952,2.8952,2.8953,2.8957,2.8957,2.8956,0,0,0,0,0,0,0,0,0,0,0,0,0,2.8935,2.8935,2.8926,2.8937,2.8938,2.8931,2.8931,2.8931,2.8951,2.8952,2.8953,2.8953,2.8957,2.8957,2.8956,2.8938,0,0,2.8954,2.8954,0,0,0,0,0,0,0,0,2.8935,2.8934,2.8935,2.8936,2.8937,2.8941,2.8936,2.8933,2.8951,2.8946,2.8953,2.8954,2.8951,2.8951,2.895,2.8939,2.8939,2.8954,2.8954,2.8954,2.8954,0,0,0,0,0,0,0,2.8935,2.8934,2.8928,2.8935,2.8936,2.8942,2.8942,2.8935,2.8944,2.8946,2.8948,2.8948,2.8952,2.8951,2.8951,2.8939,2.8954,2.8954,2.8954,2.8953,2.8915,2.8915,0,0,0,0,0,0,2.8933,2.8934,2.8928,2.8928,2.8938,2.8941,2.8942,2.8939,2.8944,2.8946,2.8948,2.8949,2.8951,2.8951,2.8951,2.8932,2.8954,2.8953,2.8953,2.8916,2.8915,2.8915,0,0,0,0,0,0,2.8933,2.8932,2.8927,2.8931,2.8931,2.894,2.8937,2.8939,2.8938,2.8945,2.8947,2.8945,2.8952,2.8951,2.8942,2.8932,2.8953,2.8953,2.8917,2.8916,2.8915,2.8893,0,0,0,0,0,0,2.8933,2.8932,2.8925,2.8931,2.8931,2.8918,2.8936,2.8938,2.8937,2.8939,2.8943,2.8945,2.8952,2.8943,2.8941,2.8932,2.8952,2.8918,2.8917,2.8915,2.8895,2.8892,2.8889,0,0,0,0,0,2.8934,2.8918,2.8925,2.8924,2.8922,2.8917,2.8917,2.8927,2.8936,2.893,2.8935,2.8945,2.8934,2.8941,2.894,2.8931,2.8919,2.8917,2.8915,2.8896,2.8892,2.8889,0,0,0,0,0,0,2.891,2.8919,2.8926,2.8912,2.8914,2.8921,2.8913,2.8922,2.892,2.8922,2.8934,2.8935,2.8924,2.8926,2.8935,2.8915,2.8928,2.8926,2.8914,2.891,2.8907,2.8907,2.8952,0,0,0,0,0,2.8903,2.8899,2.8907,2.8894,2.8894,2.8903,2.8901,2.8909,2.8911,2.8912,2.8916,2.8918,2.8915,2.8913,2.891,2.8896,2.8898,2.8889,2.8886,2.8883,2.8881,2.8876,2.8872,2.8909,2.8909,2.8909,0,0,2.8889,2.8894,2.889,2.8889,2.8891,2.8887,2.8904,2.8897,2.8894,2.891,2.8902,2.8906,2.8908,2.8897,2.8892,2.8899,2.8872,2.8881,2.8879,2.8879,2.8874,2.887,2.8867,2.8908,2.8909,2.8909,0,0,2.8861,2.8864,2.8854,2.8856,2.886,2.8866,2.8864,2.887,2.8873,2.8865,2.8878,2.8875,2.8869,2.8871,2.8871,2.8847,2.8856,2.8846,2.883,2.8824,2.8821,2.8819,2.8811,2.8808,2.8844,2.8844,2.8844,0,2.8843,2.8836,2.8847,2.8841,2.8841,2.8857,2.8848,2.8849,2.8852,2.8852,2.8859,2.8854,2.8857,2.8847,2.8841,2.884,2.8839,2.8845,2.8821,2.8818,2.8816,2.8809,2.8806,2.8843,2.8843,2.8843,2.8843,0,2.8815,2.881,2.8802,2.8805,2.8804,2.8796,2.8807,2.8805,2.8813,2.8819,2.8812,2.8816,2.8816,2.8814,2.8821,2.8805,2.881,2.8819,2.8832,2.8811,2.8805,2.8802,2.8841,2.8841,2.8842,2.8842,0,0,2.877,2.8782,2.8779,2.8781,2.8787,2.8784,2.8778,2.8778,2.8777,2.8778,2.8774,2.877,2.878,2.878,2.8788,2.8783,2.8765,2.8793,2.8793,2.8789,2.875,2.8744,2.8741,2.8772,2.8771,2.8771,2.8751,0,2.8745,2.8735,2.8746,2.8734,2.873,2.8746,2.8741,2.8745,2.8751,2.8749,2.8756,2.8753,2.8765,2.8766,2.8761,2.8768,2.8758,2.877,2.8768,2.8768,2.8768,2.8737,2.873,2.871,2.8748,2.8748,2.8747,0,2.8713,2.8715,2.8702,2.8712,2.8711,2.8706,2.8708,2.8706,2.8711,2.8716,2.8718,2.8728,2.8723,2.8736,2.8731,2.8739,2.8739,2.8743,2.8742,2.8743,2.8757,2.8738,2.8704,2.8702,2.8743,2.8744,2.8744,0,2.8684,2.8683,2.8676,2.8677,2.8687,2.8684,2.8688,2.8694,2.8694,2.8696,2.8697,2.8698,2.8699,2.87,2.8711,2.8719,2.8705,2.8718,2.8709,2.8709,2.8706,2.8706,2.8673,2.8705,2.8705,2.8705,2.8705,0,2.8654,2.8646,2.8663,2.8659,2.8651,2.8664,2.8657,2.8662,2.8668,2.8665,2.8679,2.8677,2.869,2.869,2.8698,2.8693,2.8693,2.8698,2.87,2.8697,2.8696,2.8697,2.8699,2.8704,2.8704,2.8704,2.8704,0,2.862,2.863,2.8624,2.8635,2.8638,2.8632,2.8641,2.8638,2.8646,2.8643,2.8643,2.8655,2.8655,2.8666,2.8668,2.8674,2.8666,2.8671,2.8665,2.8666,2.8657,2.8658,2.8624,2.8621,2.8654,2.8654,2.8654,0,2.86,2.8595,2.8606,2.8606,2.8609,2.8608,2.861,2.8623,2.8623,2.863,2.8627,2.8628,2.863,2.863,2.8639,2.8641,2.8647,2.8635,2.8647,2.8645,2.8648,2.8648,2.8649,2.8632,2.8631,2.8631,2.8631,0,2.8565,2.8571,2.8572,2.8576,2.8577,2.858,2.8584,2.8583,2.8598,2.8598,2.8599,2.8601,2.8604,2.8606,2.861,2.8615,2.8626,2.8627,2.8625,2.8622,2.8619,2.8622,2.8658,2.8628,2.8628,2.8628,2.8628,2.8628,2.8538,2.8535,2.8543,2.8544,2.8549,2.8553,2.8552,2.856,2.8561,2.8565,2.8573,2.8573,2.858,2.8588,2.8592,2.8592,2.8599,2.8596,2.8595,2.8594,2.8593,2.8619,2.8593,2.8593,2.8593,2.8593,2.8593,0,2.8505,2.8511,2.8512,2.8518,2.852,2.8531,2.8536,2.8537,2.8537,2.8543,2.8545,2.8547,2.855,2.856,2.8564,2.8563,2.8568,2.8563,2.8564,2.8565,2.8587,2.8588,2.8559,2.8559,2.8559,2.8559,2.8559,2.8559,2.8488,2.8484,2.8491,2.849,2.8497,2.8497,2.85,2.8504,2.8509,2.8511,2.8514,2.8521,2.8529,2.8534,2.8537,2.854,2.8541,2.8535,2.854,2.856,2.8563,2.8566,2.8568,2.8535,2.8535,2.8518,2.8518,2.8518]}]]